Location: Franzen
(48.6167°N, 15.3833°E)
Time: 13:41:05
(UTC+00:00)

RESURS DK-1 - Pass Details

Date: 22 April 2021
Orbit: 553 x 563 km, 69.9° (Epoch: 16 May)

Event Time Altitude Azimuth Distance (km) Brightness Sun altitude
Rises 18:31:07 0° 210° (SSW) 2,726 5.9 -5.5°
Reaches altitude 10° 18:33:18 10° 211° (SSW) 1,837 5.1 -5.8°
Maximum altitude 18:37:24 83° 299° (WNW) 569 2.5 -6.4°
Drops below altitude 10° 18:41:34 10° 28° (NNE) 1,858 5.0 -7.0°
Sets 18:43:47 0° 30° (NNE) 2,759 5.9 -7.4°
